Regional Weather Roundup
Issued by NWS Charleston, SC

Current Version | Previous Version | Graphics & Text | Print | Product List | Glossary On
Versions: 1 2 3 4 5 6 7 8 9 10 11 12 13 14 15 16 17 18 19 20 21 22 23 24 25 26 27 28 29 30 31 32 33 34 35 36 37 38 39 40 41 42 43 44 45 46 47 48 49 50
000 ASUS42 KCHS 190727 RWRCHS Regional Weather Roundup National Weather Service Charleston SC 300 AM EDT THU APR 19 2018 NOTE: "fair" indicates few or no clouds below 12,000 feet with no significant weather and/or obstructions to visibility. Not all stations are quality controlled. Use data with caution, especially dewpoint observations. SCZ027-030-031-034>040-042>050-190800- ...Southeast South Carolina... CITY SKY/WX TMP DP RH WIND PRES REMARKS N Charleston FAIR 68 46 45 SW12 29.90S Waterfront Prk N/A 68 54 60 SW7 29.75F Mount Pleasant FAIR 66 48 52 SW8 29.90S Johns Island FAIR 66 52 59 SW8 29.91F Pinopolis N/A 68 52 56 SW13 29.79F Moncks Corner FAIR 66 43 42 SW8 29.89R Summerville FAIR 64 45 48 SW6 29.90S Beaufort MCAS FAIR 65 46 50 SW12 29.93S Beaufort Arpt FAIR 66 46 48 SW9G16 29.93F Hilton Head Is FAIR 68 43 40 SW9G16 29.95S Walterboro FAIR 66 46 48 SW9 29.91F Allendale FAIR 68 55 64 CALM 29.90F ...Southern Midlands and Pee Dee... CITY SKY/WX TMP DP RH WIND PRES REMARKS Georgetown FAIR 64 46 52 SW9 29.88F Kingstree FAIR 66 46 48 SW6 29.84F Orangeburg FAIR 67 50 54 SW12 29.88S Barnwell FAIR 66 52 59 SW10 29.89F Aiken FAIR 64 50 59 SW10 29.90F Manning FAIR 64 45 48 SW12G18 29.86F Columbia FAIR 70 53 54 SW9 29.84F Sumter FAIR 69 49 48 SW16 29.81S Florence FAIR 68 51 54 SW12 29.81F Myrtle Beach FAIR 69 50 50 SW9G18 29.86F N Myrtle Beach FAIR 71 49 45 SW15G23 29.84F $$ GAZ063-065-086>088-099>101-113>116-118-119-134>141-150-190800- ...Southeast Georgia... CITY SKY/WX TMP DP RH WIND PRES REMARKS Savannah Arpt FAIR 66 47 50 W13 29.95F Hunter AAF FAIR 65 44 47 SW12 29.93F Fort Stewart FAIR 64 52 64 SW12 29.95S Statesboro FAIR 68 55 64 SW12 29.94F Sylvania FAIR 66 59 77 W6 29.94S Claxton FAIR 67 58 74 SW5 29.96F ...CSRA, Central and far Southeast Georgia... CITY SKY/WX TMP DP RH WIND PRES REMARKS Thomson FAIR 69 56 63 NW10G21 29.93F Augusta-Bush FAIR 69 52 54 SW12 29.88F Augusta-Daniel FAIR 71 53 52 SW13G22 29.89F Swainsboro FAIR 64 55 72 W7 29.95S Vidalia FAIR 66 61 82 W9 29.97S Eastman FAIR 67 54 61 W9 30.00S Hazlehurst FAIR 67 60 77 SW7 29.98S Alma FAIR 65 61 87 W8 30.00F Waycross FAIR 62 59 90 W7 30.02S Jesup FAIR 64 57 77 W3 30.00S Baxley FAIR 64 63 94 W12 29.99S Brunswick FAIR 63 54 72 W13 30.00R Saint Simons FAIR 64 52 64 SW12 29.98F $$ SCZ027-028-034-036>038-045-046-048>050-GAZ119-141-190800- ...Lake and Supplemental Coastal Observations... STATION/POSITION TIME TEMP WIND PRES WAVE SWELL AIR SEA DIR/SP/G HT/PER HT/PER/DIR (UTC) (F) (DEG/KT/KT) (MB) (FT/S) (FT/S/D) Winyah Bay 0645 66 230/ 6 1012.0S Lake Murray 0620 72 240/ 12/ 18 1009.8 ACE Basin NERRS 0645 67 350/ 3 N/A Fort Pulaski 0700 66 65 250/ 6/ 9 1014.7 Sapelo Island 0700 64 260/ 10 1015.0 $$ ANZ835-935-AMZ111-154-330-350-352-354-370-450-454-472-190800- ...C-MAN and Buoy Observations... STATION/POSITION TIME TEMP WIND PRES WAVE SWELL AIR SEA DIR/SP/G HT/PER HT/PER/DIR (UTC) (F) (DEG/KT/KT) (MB) (FT/S) (FT/S/D) Buoy 41004 0710 70 67 230/ 21/ 25 1012.7 Buoy 41008 0650 68 64 210/ 17/ 21 1014.2F 3/ 4 2/150/ 9 Folly Beach CMAN 0700 66 230/ 13/ 20 1013.3F Capers Nearshore 0708 66 63 240/ 17/ 23 1012.6F Fripp Nearshore 0708 65 63 250/ 14/ 17 1013.5R STATION/POSITION TIME TEMP WIND PRES WAVE SWELL AIR SEA DIR/SP/G HT/PER HT/PER/DIR (UTC) (F) (DEG/KT/KT) (MB) (FT/S) (FT/S/D) 5E St. Marys GA 0700 65 N/A 2/ 9 Frying Pan Buoy 0710 70 66 220/ 21/ 27 1011.4 Buoy 41025 0710 70 64 230/ 25/ 31 1008.7 Cape Lookout NC 0700 230/ 17/ 25 1008.8F Buoy 41002 0710 71 72 210/ 23/ 31 1014.7 Buoy 41010 0710 73 73 190/ 17/ 19 1017.8 St Augustine FL 0700 64 67 220/ 7/ 9 1017.6F $$

USA.gov is the U.S. government's official web portal to all federal, state and local government web resources and services.